AW623 Weather Reports


time (UTC)temp
F
wind
direction
speed
knots
gust
knots
rain 1hr
in
rain 24hr
in
rain mn
in
humidity
%
barometer
mb
20260510213122 70 41 10.4 14.8 0.00 0.00 0.00 31 987.9
20260510212144 71 19 9.6 12.2 0.00 0.00 0.00 34 987.8
20260510211122 70 39 10.4 13.9 0.00 0.00 0.00 35 987.8
20260510210122 68 42 8.7 11.3 0.00 0.00 0.00 35 988.1
20260510205122 69 38 8.7 13.0 0.00 0.00 0.00 35 988.2
20260510204122 68 35 10.4 13.0 0.00 0.00 0.00 34 988.2
20260510203123 68 47 8.7 12.2 0.00 0.00 0.00 36 988.2
20260510202122 68 63 8.7 12.2 0.00 0.00 0.00 34 988.2
20260510201122 68 47 10.4 14.8 0.00 0.00 0.00 34 988.2
20260510200122 68 54 9.6 13.0 0.00 0.00 0.00 33 988.0
20260510195122 68 47 11.3 14.8 0.00 0.00 0.00 33 988.1
20260510194122 69 50 9.6 14.8 0.00 0.00 0.00 35 988.2
20260510193122 68 54 9.6 13.0 0.00 0.00 0.00 35 988.2
20260510192123 69 61 9.6 13.0 0.00 0.00 0.00 35 988.2
20260510191122 69 52 7.8 11.3 0.00 0.00 0.00 35 988.2
20260510190124 68 61 9.6 13.0 0.00 0.00 0.00 35 988.4
20260510185145 68 43 9.6 14.8 0.00 0.00 0.00 34 988.2
20260510184124 68 41 9.6 13.9 0.00 0.00 0.00 35 988.1
20260510183123 68 58 8.7 13.0 0.00 0.00 0.00 36 988.0
20260510182143 67 54 9.6 12.2 0.00 0.00 0.00 35 988.1
20260510181122 67 51 10.4 13.9 0.00 0.00 0.00 35 988.1
20260510180144 66 50 12.2 15.6 0.00 0.00 0.00 34 988.2
20260510175122 66 50 11.3 14.8 0.00 0.00 0.00 34 988.1
20260510174122 66 49 13.0 16.5 0.00 0.00 0.00 34 988.2
20260510173123 66 43 12.2 15.6 0.00 0.00 0.00 33 988.2
20260510172122 67 44 13.0 17.4 0.00 0.00 0.00 33 988.0
20260510171122 68 45 13.0 18.2 0.00 0.00 0.00 34 988.0
20260510170123 68 59 13.0 17.4 0.00 0.00 0.00 33 988.1
20260510165123 69 58 13.9 17.4 0.00 0.00 0.00 32 988.0
20260510164122 68 51 13.0 20.0 0.00 0.00 0.00 30 987.9
20260510163123 69 62 12.2 16.5 0.00 0.00 0.00 31 987.9
20260510162122 68 49 13.0 19.1 0.00 0.00 0.00 32 987.8
20260510161122 66 59 12.2 15.6 0.00 0.00 0.00 35 987.8
20260510160122 65 54 11.3 14.8 0.00 0.00 0.00 36 987.9
20260510155122 64 55 12.2 17.4 0.00 0.00 0.00 36 987.6
20260510154122 66 57 10.4 13.9 0.00 0.00 0.00 36 987.4
20260510153122 67 53 9.6 13.0 0.00 0.00 0.00 35 987.2
20260510152123 64 60 10.4 14.8 0.00 0.00 0.00 37 987.2
20260510151122 63 60 10.4 13.9 0.00 0.00 0.00 39 987.2
20260510150122 62 56 13.0 17.4 0.00 0.00 0.00 40 987.0
20260510145122 63 56 15.6 20.0 0.00 0.00 0.00 39 986.7
20260510144122 62 60 13.9 20.9 0.00 0.00 0.00 40 986.8
20260510143122 63 59 10.4 16.5 0.00 0.00 0.00 42 986.9
20260510142122 60 61 11.3 14.8 0.00 0.00 0.00 43 987.2
20260510141122 60 63 9.6 13.9 0.00 0.00 0.00 44 987.2
20260510140143 60 54 10.4 13.9 0.00 0.00 0.00 44 987.5
20260510135122 59 53 9.6 13.0 0.00 0.00 0.00 45 987.4
20260510134122 59 58 10.4 14.8 0.00 0.00 0.00 45 987.1
20260510133122 59 55 11.3 14.8 0.00 0.00 0.00 46 986.7
20260510132122 59 63 11.3 15.6 0.00 0.00 0.00 46 986.4
20260510131122 59 53 11.3 13.9 0.00 0.00 0.00 46 986.4
20260510130122 59 64 11.3 13.9 0.00 0.00 0.00 46 986.0
20260510125123 59 65 12.2 15.6 0.00 0.00 0.00 46 985.7
20260510124123 59 61 13.0 15.6 0.00 0.00 0.00 47 985.4
20260510123122 59 64 12.2 15.6 0.00 0.00 0.00 48 985.1
20260510122122 59 54 13.0 16.5 0.00 0.00 0.00 50 985.0
20260510121122 59 50 12.2 16.5 0.00 0.00 0.00 53 985.0
20260510120122 59 57 11.3 15.6 0.00 0.00 0.00 53 984.0
20260510115122 59 61 12.2 15.6 0.00 0.00 0.00 55 984.0
20260510114123 59 62 12.2 15.6 0.00 0.00 0.00 57 983.7
20260510113122 59 63 11.3 14.8 0.00 0.00 0.00 59 983.4
20260510112144 59 64 12.2 17.4 0.00 0.00 0.00 60 983.2
20260510111122 59 74 11.3 13.9 0.00 0.00 0.00 60 983.2
20260510110122 59 62 11.3 14.8 0.00 0.00 0.00 60 983.2
20260510105122 60 57 11.3 13.9 0.00 0.00 0.00 59 983.2
20260510104123 60 62 11.3 14.8 0.00 0.00 0.00 58 982.9
20260510103122 61 66 10.4 13.0 0.00 0.00 0.00 57 982.7
20260510102143 61 74 8.7 11.3 0.00 0.00 0.00 57 982.7
20260510101122 60 71 6.1 9.6 0.00 0.00 0.00 58 982.7
20260510100125 61 84 7.0 10.4 0.00 0.00 0.00 57 982.2
20260510095122 61 62 9.6 13.0 0.00 0.00 0.00 56 982.6
20260510094123 62 56 9.6 11.3 0.00 0.00 0.00 56 982.2
20260510093122 62 60 9.6 13.9 0.00 0.00 0.00 55 981.9
20260510092122 62 58 10.4 12.2 0.00 0.00 0.00 55 981.8
20260510091122 63 63 9.6 12.2 0.00 0.00 0.00 54 981.8
20260510090122 63 66 9.6 13.9 0.00 0.00 0.00 54 981.7
20260510085123 63 64 8.7 10.4 0.00 0.00 0.00 55 981.7
20260510084123 63 64 9.6 12.2 0.00 0.00 0.00 55 981.7
20260510083122 64 57 7.8 9.6 0.00 0.00 0.00 55 981.4
20260510082143 64 52 7.8 11.3 0.00 0.00 0.00 55 981.2
20260510081122 64 53 8.7 9.6 0.00 0.00 0.00 56 981.2
20260510080122 64 62 7.0 7.8 0.00 0.00 0.00 57 981.0
20260510075122 64 52 5.2 7.0 0.00 0.00 0.00 58 981.0
20260510074122 64 53 5.2 6.1 0.00 0.00 0.00 58 980.6
20260510073123 64 64 5.2 7.0 0.00 0.00 0.00 57 980.5
20260510072122 64 56 5.2 6.1 0.00 0.00 0.00 57 980.5
20260510071123 65 56 4.3 5.2 0.00 0.00 0.00 56 980.5
20260510070122 65 46 4.3 5.2 0.00 0.00 0.00 55 980.6
20260510065122 65 57 4.3 4.3 0.00 0.00 0.00 55 980.6
20260510064123 66 60 3.5 5.2 0.00 0.00 0.00 54 980.4
20260510063122 66 59 4.3 4.3 0.00 0.00 0.00 54 980.2
20260510062122 66 47 3.5 4.3 0.00 0.00 0.00 54 980.2
20260510061122 66 60 3.5 5.2 0.00 0.00 0.00 53 980.2
20260510060144 67 59 4.3 5.2 0.00 0.00 0.00 52 980.0
20260510055122 67 70 3.5 4.3 0.00 0.00 0.00 51 980.0
20260510054122 68 77 2.6 4.3 0.00 0.00 0.00 50 979.9
20260510053122 68 81 1.7 3.5 0.00 0.00 0.00 50 980.0
20260510052122 69 71 3.5 5.2 0.00 0.00 0.00 48 980.0
20260510051122 69 57 5.2 6.1 0.00 0.00 0.00 47 980.0
20260510050122 70 90 4.3 5.2 0.00 0.00 0.00 46 979.8
20260510045144 70 73 4.3 7.0 0.00 0.00 0.00 46 979.9
20260510044123 70 65 4.3 5.2 0.00 0.00 0.00 47 979.7
20260510043122 70 63 3.5 4.3 0.00 0.00 0.00 47 979.7
20260510042122 71 77 3.5 5.2 0.00 0.00 0.00 45 979.8
20260510041143 72 79 3.5 6.1 0.00 0.00 0.00 44 979.8
20260510040122 73 72 3.5 6.1 0.00 0.00 0.00 43 980.1
20260510035122 74 71 3.5 5.2 0.00 0.00 0.00 42 979.8
20260510034144 74 90 4.3 7.8 0.00 0.00 0.00 42 979.7
20260510033123 75 79 4.3 9.6 0.00 0.00 0.00 41 979.6
20260510032122 75 53 6.1 7.8 0.00 0.00 0.00 41 979.6
20260510031143 75 54 5.2 9.6 0.00 0.00 0.00 41 979.6
20260510030143 76 343 5.2 9.6 0.00 0.00 0.00 40 979.1
20260510025122 76 291 4.3 8.7 0.00 0.00 0.00 42 978.8
20260510024122 75 315 4.3 6.1 0.00 0.00 0.00 43 978.5
20260510023122 75 335 4.3 6.1 0.00 0.00 0.00 43 978.0
20260510022123 77 215 2.6 4.3 0.00 0.00 0.00 41 977.6
20260510021143 77 206 4.3 7.0 0.00 0.00 0.00 41 977.6
20260510020122 77 211 4.3 5.2 0.00 0.00 0.00 40 977.2
20260510015122 77 217 4.3 6.1 0.00 0.00 0.00 40 977.0
20260510014122 78 196 4.3 7.8 0.00 0.00 0.00 39 976.7
20260510013122 78 207 4.3 6.1 0.00 0.00 0.00 38 976.5
20260510012143 78 155 4.3 8.7 0.00 0.00 0.00 38 976.2
20260510011123 79 160 6.1 7.8 0.00 0.00 0.00 37 976.2
20260510010122 78 118 3.5 5.2 0.00 0.00 0.00 38 976.0
20260510005123 79 77 3.5 4.3 0.00 0.00 0.00 36 975.6
20260510004122 80 52 2.6 4.3 0.00 0.00 0.00 36 975.4
20260510003122 84 196 1.7 2.6 0.00 0.00 0.00 31 975.5
20260510002124 84 207 2.6 2.6 0.00 0.00 0.00 29 975.4
20260510001122 87 199 2.6 3.5 0.00 0.00 0.00 28 975.4
20260510000122 86 215 2.6 4.3 0.00 0.00 0.00 28 975.5
20260509235122 84 219 2.6 4.3 0.00 0.00 0.00 29 975.5
20260509234122 84 212 4.3 6.1 0.00 0.00 0.00 28 975.5
20260509233143 85 229 3.5 5.2 0.00 0.00 0.00 28 975.4
20260509232122 86 236 4.3 7.0 0.00 0.00 0.00 26 975.2
20260509231123 87 274 5.2 7.0 0.00 0.00 0.00 24 975.2
20260509230125 88 280 5.2 7.8 0.00 0.00 0.00 23 975.2
20260509225143 91 278 6.1 9.6 0.00 0.00 0.00 23 975.2
20260509224143 92 294 6.1 8.7 0.00 0.00 0.00 22 975.2
20260509223122 93 286 5.2 7.0 0.00 0.00 0.00 21 975.2
20260509222122 91 273 7.0 9.6 0.00 0.00 0.00 23 975.2
20260509221122 89 245 6.1 9.6 0.00 0.00 0.00 23 975.2
20260509220122 89 275 5.2 9.6 0.00 0.00 0.00 25 975.2
20260509215122 91 260 6.1 8.7 0.00 0.00 0.00 22 975.2
20260509214122 89 251 7.0 11.3 0.00 0.00 0.00 23 975.2